Weather History for KACY - February, 2013

Change the Weather History Date:

Tuesday, February 19, 2013

  Actual Average Record
Temperature  
Mean Temperature 40 °F 36 °F  
Max Temperature 48 °F 45 °F 73 °F (1961)
Min Temperature 31 °F 27 °F 4 °F (1903)
Degree Days  
Heating Degree Days 25 29  
Month to date heating degree days 610 579  
Since 1 July heating degree days 3170 3340  
Cooling Degree Days 0 0  
Month to date cooling degree days 0 0  
Year to date cooling degree days 0 0  
Moisture  
Dew Point 34 °F    
Average Humidity 68    
Maximum Humidity 89    
Minimum Humidity 47    
Precipitation  
Precipitation 0.20 in 0.10 in 1.70 in (1927)
Month to date precipitation 3.55 1.87  
Year to date precipitation 5.85 5.09  
Snow  
Snow 0.00 in 0.30 in 16.60 in (1979)
Month to date snowfall 6.3 4.9  
Since 1 July snowfall 11.4 13.3  
Snow Depth 0.00 in    
Sea Level Pressure  
Sea Level Pressure 29.94 in    
Wind  
Wind Speed 11 mph (SSW)    
Max Wind Speed 23 mph    
Max Gust Speed 32 mph    
Visibility 10 miles    
Events Rain    
T = Trace of Precipitation, MM = Missing Value Source: NWS Daily Summary

Daily Weather History Graph

Daily Weather History Graph

Search for Another Location

Airport or City:

Trip Planner

Search our weather history database for the weather conditions in past years. The results will help you decide how hot, cold, wet, or windy it might be!

Date:

Astronomy

Feb. 19, 2013 Rise Set
Actual Time 6:44 AM EST 5:39 PM EST
Civil Twilight 6:17 AM EST 6:07 PM EST
Nautical Twilight 5:46 AM EST 6:38 PM EST
Astronomical Twilight 5:15 AM EST 7:09 PM EST
Moon 12:10 PM EST (2/19) 2:13 AM EST (2/19)
Length of Visible Light 11h 49m
Length of Day
10h 54m
Waxing Gibbous, 67% of the Moon is Illuminated
Feb 19
Waxing Gibbous
Feb 25
Full
Mar 4
Last Quarter
Mar 11
New
Mar 19
First Quarter

Hourly Weather History & Observations

Time (EST) Temp. Windchill Dew Point Humidity Pressure Visibility Wind Dir Wind Speed Gust Speed Precip Events Conditions
12:54 AM 33.1 °F 26.1 °F 19.0 °F 56% 30.23 in 10.0 mi South 8.1 mph - N/A   Clear
1:54 AM 34.0 °F 27.2 °F 26.1 °F 73% 30.20 in 10.0 mi South 8.1 mph - N/A   Clear
2:54 AM 36.0 °F 28.5 °F 26.1 °F 67% 30.17 in 10.0 mi South 10.4 mph - N/A   Clear
3:54 AM 36.0 °F 29.0 °F 26.1 °F 67% 30.15 in 10.0 mi SSW 9.2 mph - N/A   Clear
4:54 AM 35.1 °F 28.6 °F 25.0 °F 67% 30.13 in 10.0 mi SSW 8.1 mph - N/A   Clear
5:54 AM 35.1 °F 28.6 °F 26.1 °F 70% 30.11 in 10.0 mi South 8.1 mph - N/A   Clear
6:54 AM 37.0 °F 29.8 °F 26.1 °F 65% 30.10 in 10.0 mi South 10.4 mph - N/A   Clear
7:54 AM 37.9 °F 30.5 °F 27.0 °F 65% 30.10 in 10.0 mi SSW 11.5 mph - N/A   Clear
8:54 AM 42.1 °F 35.2 °F 28.0 °F 58% 30.06 in 10.0 mi SSW 12.7 mph 21.9 mph N/A   Clear
9:54 AM 45.0 °F 38.2 °F 34.0 °F 65% 30.05 in 10.0 mi South 15.0 mph 21.9 mph N/A   Clear
10:54 AM 48.0 °F - 35.1 °F 61% 30.02 in 10.0 mi South 16.1 mph - N/A   Clear
11:54 AM 48.0 °F - 36.0 °F 63% 29.99 in 10.0 mi South 13.8 mph - N/A   Overcast
12:54 PM 45.0 °F 40.1 °F 39.0 °F 80% 29.95 in 7.0 mi SSE 9.2 mph - 0.02 in Rain Rain
1:54 PM 45.0 °F 39.7 °F 41.0 °F 86% 29.89 in 10.0 mi South 10.4 mph - 0.05 in Rain Light Rain
2:54 PM 46.0 °F 41.4 °F 42.1 °F 86% 29.84 in 10.0 mi South 9.2 mph - 0.01 in   Overcast
3:54 PM 46.0 °F 40.6 °F 42.1 °F 86% 29.80 in 9.0 mi South 11.5 mph - 0.03 in Rain Light Rain
4:54 PM 46.0 °F 40.6 °F 43.0 °F 89% 29.76 in 7.0 mi SSW 11.5 mph - 0.04 in Rain Light Rain
5:54 PM 46.0 °F 40.6 °F 43.0 °F 89% 29.74 in 10.0 mi SSW 11.5 mph - 0.03 in Rain Light Rain
6:17 PM 46.0 °F 41.4 °F 44.1 °F 93% 29.73 in 10.0 mi SSW 9.2 mph - 0.01 in   Overcast
6:32 PM 46.0 °F 41.9 °F 44.1 °F 93% 29.73 in 9.0 mi SSW 8.1 mph - 0.01 in Rain Light Rain
7:54 PM 48.0 °F - 44.1 °F 86% 29.73 in 10.0 mi West 18.4 mph 27.6 mph 0.01 in   Overcast
8:22 PM 46.9 °F - 41.0 °F 80% 29.73 in 10.0 mi West 11.5 mph 32.2 mph 0.00 in   Overcast
8:37 PM 46.0 °F 40.2 °F 41.0 °F 83% 29.73 in 10.0 mi West 12.7 mph - 0.00 in   Overcast
8:54 PM 46.0 °F 40.6 °F 39.9 °F 79% 29.75 in 10.0 mi West 11.5 mph - 0.00 in   Overcast
9:54 PM 43.0 °F 36.4 °F 37.9 °F 82% 29.78 in 10.0 mi West 12.7 mph - N/A   Mostly Cloudy
10:54 PM 42.1 °F 34.9 °F 32.0 °F 67% 29.79 in 10.0 mi WNW 13.8 mph 25.3 mph N/A   Mostly Cloudy
11:54 PM 37.0 °F 31.0 °F 28.0 °F 70% 29.80 in 10.0 mi West 8.1 mph - N/A   Clear